Theta_e
319 320 320 320 320 320 320 320 320 320 320 319 320 320 320 320 320 321 321 321 322 322 322 322 322 322 323 323 324 321 319 325 325 325 319 320 325 329 330 331 334 333 330 319 317 316 314 314 314 315 315 314 312 313 314 316 318 316 310 309 305 308 307 310 310 312 315 315 317 318 319 319 317 321 321 324 323 321 319 320 324 326 327 328 328 332 334 335
319 319 320 320 320 320 320 320 320 320 320 320 320 320 320 320 320 321 321 321 321 322 322 322 322 322 323 323 323 320 321 326 324 320 319 327 328 332 333 334 332 329 327 316 315 315 313 312 313 314 313 311 314 312 315 315 320 313 311 310 305 309 311 315 314 316 316 316 318 318 320 319 317 319 320 318 318 316 316 320 323 323 325 325 327 331 332 332
319 319 319 320 320 320 320 320 320 320 320 319 319 319 320 320 320 320 320 321 321 321 322 322 322 322 323 323 322 318 321 325 324 312 319 330 332 335 334 333 332 326 317 315 316 316 314 313 314 314 312 311 314 312 316 315 318 314 313 306 308 314 314 318 318 317 320 320 318 318 318 317 318 320 323 317 315 316 314 314 316 320 321 323 327 329 330 331
318 319 319 319 319 319 320 320 319 320 320 319 320 320 319 319 320 320 320 321 321 321 322 322 322 322 322 323 321 323 325 317 307 311 324 334 335 335 334 333 333 325 318 315 316 316 315 315 315 314 311 312 315 317 314 315 314 315 313 308 310 315 311 317 320 320 320 320 318 318 318 317 320 321 320 317 314 312 315 319 318 317 321 323 326 328 329 329
318 319 319 319 319 319 319 319 319 319 319 319 319 319 319 319 320 320 320 321 321 322 322 322 322 322 323 323 321 323 322 308 305 314 325 334 336 336 335 334 331 321 318 316 316 315 315 315 314 313 314 312 315 315 314 316 317 316 312 314 314 313 312 317 319 319 318 319 318 317 315 316 322 321 319 316 312 311 316 320 322 323 324 324 323 326 326 326
318 318 319 319 319 319 319 319 319 319 319 319 319 320 319 319 319 320 320 321 321 322 322 322 322 323 323 321 322 326 317 296 309 316 339 336 336 336 335 333 327 319 316 315 314 314 314 314 313 312 312 312 311 310 313 316 318 309 314 315 314 316 314 318 318 317 318 317 316 315 317 320 319 317 319 317 316 318 323 325 325 325 326 326 326 328 328 326
318 319 319 319 319 319 319 319 319 319 319 319 319 319 319 319 319 320 320 320 321 322 322 322 322 323 323 319 327 322 311 309 316 325 333 338 336 335 337 335 335 316 316 314 313 313 314 312 314 313 313 313 313 313 315 315 316 314 310 315 315 317 315 318 317 318 318 317 316 320 322 317 317 312 320 318 321 323 326 327 327 327 327 326 326 325 326 327
318 319 319 319 319 319 319 319 319 319 319 319 319 319 319 319 320 320 320 321 321 321 322 322 322 323 321 325 320 313 310 310 317 331 337 336 333 330 328 319 316 315 314 313 314 313 314 312 313 315 313 311 312 313 315 314 316 313 312 315 315 316 316 318 318 318 319 318 320 320 317 317 318 318 319 317 321 325 326 328 327 324 325 325 325 324 325 327
318 318 318 318 319 319 319 318 319 319 319 319 319 319 319 319 319 320 320 320 321 321 321 322 322 322 318 317 315 309 308 315 322 332 333 326 324 321 317 315 316 314 314 315 315 316 314 314 315 316 310 311 315 312 313 311 309 315 314 315 315 314 315 317 318 318 318 318 320 317 315 318 319 319 318 319 321 325 326 326 326 324 324 325 324 325 326 327
318 318 318 318 318 318 318 318 318 319 319 319 319 319 319 319 319 319 320 320 321 321 321 321 322 319 322 320 314 306 311 322 325 331 330 323 321 317 316 317 316 315 314 315 316 316 315 316 316 318 317 315 316 312 315 313 311 317 315 315 315 315 316 317 316 317 318 315 318 316 316 317 318 318 312 321 322 324 324 325 326 326 324 324 324 326 328 327
318 318 318 318 318 318 318 318 319 319 319 319 319 318 318 318 318 318 319 320 320 321 321 321 320 320 323 317 310 305 317 319 330 330 328 322 317 315 315 316 316 315 316 316 317 319 319 321 321 320 318 313 316 313 315 315 319 316 316 315 315 315 315 316 316 316 318 315 317 317 316 317 317 317 314 320 323 325 323 324 325 324 325 325 325 326 328 328
318 318 318 318 318 318 318 318 318 319 319 319 318 317 317 317 317 318 319 320 320 320 321 321 316 324 321 317 311 310 318 320 326 328 326 320 316 316 316 317 316 316 317 318 319 322 322 321 321 318 311 319 311 316 315 320 317 314 315 311 312 314 313 315 313 315 315 313 318 317 313 313 313 312 318 322 324 323 324 323 324 324 324 324 325 327 328 328
318 318 318 318 318 318 317 318 318 318 318 317 316 316 316 317 317 318 319 320 321 321 321 319 319 326 320 310 311 318 321 324 325 326 324 321 319 318 319 318 317 317 317 321 320 320 321 321 321 316 319 316 314 311 317 320 316 314 314 312 309 309 308 314 315 315 315 313 316 314 301 307 311 316 319 323 323 322 322 321 322 323 324 324 325 325 327 329
318 318 318 318 317 317 317 318 318 318 317 316 316 316 316 317 317 318 319 320 320 321 321 318 324 326 322 310 315 318 322 325 324 321 320 320 317 317 317 318 318 318 318 319 319 321 321 324 323 321 321 317 314 322 317 316 317 310 312 312 305 304 304 312 313 313 311 315 316 315 304 307 312 316 319 321 323 322 319 321 322 324 324 324 324 325 326 329
318 318 318 318 317 316 317 317 318 317 316 315 316 315 315 316 318 319 318 320 319 321 318 318 328 321 313 311 319 324 330 323 318 317 321 319 316 315 315 316 316 318 319 321 321 324 325 324 322 318 315 320 320 315 311 311 312 311 306 301 305 303 305 310 315 313 308 312 315 312 305 307 312 315 318 320 322 322 319 320 322 323 323 324 324 324 324 327
318 318 318 317 316 316 316 317 316 315 315 315 315 315 316 316 318 318 319 323 320 319 322 328 323 319 311 307 315 333 320 314 314 317 319 319 317 313 315 315 317 319 321 321 325 324 324 322 317 317 316 318 314 310 307 306 306 308 306 303 302 305 305 308 313 315 315 313 314 312 304 309 311 316 319 321 321 320 320 321 322 323 324 323 323 325 324 325
318 317 317 316 315 315 316 316 316 315 314 314 314 316 317 319 320 321 322 319 323 323 324 317 320 318 308 314 320 316 313 316 319 317 316 318 317 317 317 317 317 319 321 321 323 323 321 319 318 316 317 313 311 310 305 303 303 304 307 303 304 302 304 303 310 313 315 312 307 312 309 310 313 316 318 320 319 319 319 320 321 321 322 322 323 324 324 325
317 317 316 316 315 315 316 316 316 315 313 313 315 317 321 319 319 319 321 323 327 325 324 323 320 315 307 315 308 311 316 316 316 315 315 317 317 317 319 317 319 319 319 317 320 316 318 313 317 310 311 311 310 308 301 298 301 302 304 302 301 305 306 304 305 310 314 313 310 311 311 311 313 315 317 318 319 319 319 319 321 321 322 322 322 323 323 324
317 317 316 316 315 315 315 315 316 314 313 312 313 314 314 313 322 326 324 322 318 318 312 310 311 303 300 310 314 316 317 317 317 316 314 315 316 318 319 321 319 316 312 312 312 314 315 313 315 309 305 307 307 309 303 305 306 303 303 303 303 302 304 305 309 313 313 310 309 310 308 309 312 314 316 318 319 318 319 321 321 321 322 322 323 323 324 325
316 316 316 315 315 314 314 314 315 314 312 319 326 327 327 324 321 318 323 322 314 315 314 312 313 311 312 313 313 318 320 319 313 314 315 317 315 316 316 317 314 314 311 308 310 312 314 306 304 305 306 305 307 308 308 310 307 306 306 305 302 303 305 308 309 312 314 310 309 309 310 309 308 311 315 317 319 319 319 319 320 320 320 320 321 323 324 326
316 316 316 316 315 314 313 313 313 312 311 322 329 323 313 315 311 307 315 314 319 320 317 316 316 314 313 315 317 317 311 312 314 313 315 316 315 313 310 312 308 306 307 308 308 313 312 305 305 309 309 308 308 310 310 309 307 306 306 304 302 306 303 307 307 310 313 309 307 310 309 309 311 313 315 317 317 316 317 318 318 320 322 322 322 322 323 327
316 316 316 316 315 313 312 312 311 312 311 329 322 316 316 317 319 320 318 309 315 318 318 317 317 316 318 317 319 317 315 309 310 312 315 315 312 308 309 309 308 304 306 307 308 307 305 305 305 308 311 311 310 310 310 307 305 306 306 306 305 304 307 308 309 311 312 309 306 309 305 309 311 313 315 316 316 318 319 319 319 320 320 322 322 323 325 327
316 316 316 315 314 313 311 311 311 308 327 324 317 316 313 318 322 324 322 316 311 316 315 314 313 313 313 317 318 317 310 307 306 310 312 314 311 310 310 308 307 305 305 306 304 303 302 303 305 310 311 309 308 309 309 307 306 305 306 304 300 304 303 301 306 309 310 309 306 306 305 306 311 314 314 316 317 317 319 319 320 322 321 321 322 322 323 324
315 315 315 315 314 312 310 309 307 321 323 321 317 314 317 320 324 324 319 314 306 310 311 312 315 313 312 311 315 315 310 308 311 308 314 312 310 310 310 307 306 305 305 305 305 304 301 303 307 310 310 309 307 307 307 305 304 307 306 302 302 303 305 304 305 309 309 309 311 306 306 305 308 308 309 313 316 316 317 318 319 321 321 323 325 325 326 325
315 315 315 314 313 310 309 307 318 318 319 323 319 319 319 322 325 325 319 309 309 306 312 312 315 312 312 316 315 311 311 310 310 312 313 312 309 309 307 309 307 303 304 304 304 304 302 304 308 308 308 308 308 305 307 304 303 304 306 304 304 306 305 305 307 306 303 302 307 304 297 299 307 307 307 310 313 314 317 318 318 319 320 321 321 322 324 326
314 314 314 314 312 309 308 318 319 318 315 320 321 321 321 324 325 327 319 305 297 303 310 302 312 306 314 310 312 310 311 305 310 312 313 313 315 310 308 307 307 302 304 304 304 303 302 305 308 307 307 307 307 305 307 308 304 303 304 309 307 306 305 305 304 305 299 297 303 306 298 293 306 306 308 310 311 312 316 317 317 319 319 320 320 321 322 322
314 314 313 312 311 309 320 315 317 318 315 318 322 322 323 325 330 325 312 299 293 302 302 308 309 307 312 311 310 310 299 302 311 311 312 313 310 314 306 305 307 306 306 306 304 300 303 305 306 308 307 306 305 303 306 307 302 302 308 309 309 306 304 305 305 305 300 306 307 307 306 299 299 305 310 311 310 311 313 315 317 318 319 320 321 322 323 323
313 313 313 312 311 310 318 319 319 312 312 318 321 322 324 328 329 325 310 288 288 306 301 306 307 314 313 312 311 307 307 309 304 308 311 312 313 310 308 305 305 304 305 304 297 302 304 302 305 305 305 305 304 306 308 309 305 305 309 309 308 308 307 306 306 305 304 304 300 304 304 300 299 304 311 311 308 310 311 313 316 318 319 320 320 321 323 324
312 313 312 312 310 309 316 320 318 313 319 320 321 323 326 330 325 315 298 287 301 304 313 304 316 311 312 310 308 308 308 309 304 308 311 313 313 310 306 306 306 305 305 305 300 301 303 306 306 307 305 302 306 308 310 309 305 309 310 310 310 309 308 307 305 304 303 302 296 300 303 298 298 305 307 309 308 308 310 313 315 317 319 320 321 322 323 324
312 311 311 310 313 318 321 321 315 318 321 321 322 326 327 325 316 302 291 286 305 296 306 309 310 306 310 305 305 307 306 307 308 309 311 309 310 311 308 310 306 305 304 306 304 303 303 308 308 306 304 306 308 310 309 309 310 312 310 308 307 307 306 307 306 304 303 294 298 300 302 301 295 303 306 306 305 310 311 314 316 317 319 320 322 322 323 323
310 310 310 310 316 318 316 318 321 320 321 324 324 325 326 320 305 294 286 298 306 304 309 308 306 311 305 303 302 306 306 306 306 307 306 308 307 309 308 305 309 305 304 304 303 304 305 305 305 304 306 309 310 307 310 312 312 311 307 305 305 303 306 304 304 304 295 292 299 302 302 302 294 299 307 310 313 313 314 311 313 314 316 319 321 321 322 322
309 309 309 311 317 317 316 313 318 322 323 325 326 328 315 299 304 292 291 307 296 301 304 304 308 308 304 305 304 305 304 305 306 306 304 305 305 304 305 301 304 297 298 299 298 304 302 302 304 306 311 309 307 306 308 310 310 308 307 305 300 296 298 293 299 292 294 293 300 303 302 300 300 305 308 311 313 315 316 315 315 315 316 319 320 321 322 321
308 308 308 312 313 317 318 321 323 325 325 325 327 315 306 296 288 300 298 302 299 311 305 310 307 306 305 303 302 303 305 302 305 305 307 306 305 305 305 306 306 303 296 301 300 300 300 303 304 305 307 311 309 303 303 303 307 306 304 302 299 293 291 287 293 293 296 299 303 302 303 301 304 306 311 310 314 318 317 318 317 317 317 318 318 320 320 321
308 308 315 319 317 321 323 327 324 324 324 328 322 309 305 293 293 304 303 305 306 308 308 309 307 305 305 301 302 304 301 303 304 304 305 304 305 303 304 306 306 303 303 302 298 299 293 296 301 304 302 309 309 307 306 305 306 306 308 303 301 299 294 286 292 288 291 297 300 303 300 297 298 304 313 314 317 318 319 318 318 318 318 319 319 318 319 321
306 311 321 325 320 322 324 325 326 327 326 324 310 305 293 294 302 300 302 304 307 309 308 308 306 303 302 303 304 304 304 301 304 304 304 304 303 304 302 303 306 307 304 298 301 302 297 299 303 306 306 308 306 308 310 307 306 307 308 309 302 300 303 295 299 297 298 297 296 298 298 304 305 311 314 315 317 317 318 318 317 316 318 318 317 318 318 319
311 326 325 327 327 330 329 326 328 326 328 315 306 298 296 302 299 307 305 311 309 308 307 306 305 300 300 302 304 303 304 303 303 304 303 304 305 304 305 306 305 307 303 298 302 298 298 297 305 305 307 306 306 308 308 309 298 305 305 300 303 308 304 296 297 303 300 295 292 300 301 304 309 311 312 313 314 315 317 316 316 316 316 318 317 317 318 318
319 322 325 325 326 329 329 326 324 327 323 314 304 296 306 306 312 308 310 311 312 311 308 299 300 301 298 298 302 302 303 304 303 303 300 305 303 305 304 306 308 307 307 307 302 307 299 299 305 304 302 305 307 309 309 308 309 306 299 303 308 310 308 301 292 294 293 290 291 299 298 300 300 296 311 311 312 313 314 315 315 316 316 316 316 317 318 318
318 320 322 324 324 330 328 326 326 328 319 310 300 306 311 308 310 312 313 311 312 312 307 301 304 307 300 300 300 302 303 301 301 303 301 304 301 307 305 306 308 307 309 310 305 304 306 297 302 305 305 305 308 308 306 308 310 306 304 312 302 294 296 303 296 288 289 289 291 298 299 300 301 303 307 307 310 312 313 315 315 314 314 315 316 317 318 319
320 318 315 322 325 329 329 329 327 319 313 305 305 300 310 314 313 313 313 313 312 312 305 307 304 306 308 301 303 303 303 299 302 302 300 303 300 305 306 307 307 309 308 309 307 308 308 298 299 305 305 305 307 307 299 303 308 309 310 306 309 305 303 300 295 300 298 290 290 296 297 296 304 307 309 308 312 313 313 314 314 314 315 315 316 316 317 318
318 314 313 325 326 332 331 326 320 316 310 300 304 307 313 310 313 314 315 315 312 311 309 308 309 305 308 307 305 302 302 302 301 302 302 304 303 306 306 308 307 308 309 309 308 310 304 310 294 302 306 305 301 304 303 304 302 303 303 303 304 306 308 305 306 299 297 292 292 291 290 299 306 312 311 311 313 314 314 314 314 315 316 316 316 316 316 317
319 316 315 325 325 330 329 324 312 305 305 313 314 311 312 311 314 316 315 314 314 313 313 311 310 306 307 305 304 307 302 303 303 302 302 303 303 298 308 309 309 307 309 308 307 310 301 302 295 301 301 301 304 307 306 306 307 305 304 303 304 302 300 295 294 303 301 297 292 291 290 303 308 313 314 313 315 315 316 315 315 315 315 316 316 317 317 316
313 306 314 325 327 327 321 306 308 312 310 305 307 312 312 316 314 313 315 314 314 312 313 313 310 310 308 308 308 305 305 301 302 302 303 302 305 307 308 309 310 310 310 305 308 311 315 308 304 297 302 304 305 307 308 308 308 307 307 305 307 307 305 300 292 297 301 301 301 300 294 300 312 314 316 316 316 316 316 316 314 315 316 316 316 317 317 317
308 309 322 325 327 324 314 305 309 307 306 311 312 312 315 315 314 314 313 313 310 313 312 311 310 309 310 311 307 306 306 303 303 302 303 305 306 309 309 309 311 310 312 309 308 310 314 307 301 302 304 306 308 309 309 309 309 306 306 308 306 304 305 303 302 304 299 301 297 297 293 299 311 316 317 317 318 318 317 316 315 315 315 315 315 315 315 315
313 314 318 326 328 324 313 296 296 301 309 310 313 312 315 315 314 310 313 311 313 310 312 310 310 312 311 311 311 306 307 300 304 304 303 307 305 310 312 312 311 311 311 309 307 316 301 306 303 298 297 300 303 306 306 308 307 307 306 308 308 307 306 307 306 308 295 301 300 296 290 298 312 315 316 317 317 316 316 316 316 314 315 315 315 315 315 315
314 317 317 320 324 323 310 309 303 303 307 309 311 309 311 312 318 317 315 310 314 313 311 310 312 312 310 311 310 310 308 308 303 307 307 306 308 311 312 314 311 313 312 315 315 317 303 304 301 295 291 288 288 290 294 299 303 307 308 306 306 305 306 304 298 303 294 301 301 296 294 307 312 314 314 315 315 315 316 316 316 316 315 314 314 314 314 314
308 299 313 315 319 318 316 314 314 308 307 309 304 311 313 310 314 317 316 315 315 314 316 313 312 313 310 309 308 307 306 308 307 305 306 305 308 310 312 314 314 315 317 318 316 316 307 311 308 306 301 297 300 304 307 312 307 301 304 306 305 307 308 308 305 300 296 303 300 302 303 305 306 310 311 312 314 313 314 315 314 314 315 315 315 314 314 313
312 308 306 304 315 314 313 312 310 310 304 311 301 310 310 310 311 312 316 312 313 316 313 313 311 309 310 310 309 307 307 307 307 307 306 306 308 310 311 315 316 316 319 314 317 316 310 303 308 309 307 304 306 307 307 310 305 305 304 304 305 305 307 307 299 299 306 300 294 305 309 307 306 309 311 311 313 314 315 315 314 314 314 314 314 314 312 312
303 311 315 320 310 304 305 304 311 309 313 313 309 315 310 311 310 309 311 315 316 318 312 311 312 311 311 310 309 304 306 307 306 305 307 308 307 308 307 310 311 316 320 313 315 316 308 299 308 309 306 306 306 305 306 308 308 306 305 305 305 306 307 305 305 306 306 297 296 306 308 306 309 310 313 313 314 315 315 315 316 316 315 314 313 311 311 311
317 317 317 318 309 313 313 315 314 312 311 312 311 315 310 309 308 312 310 311 312 312 313 300 310 311 311 311 310 308 309 302 299 308 308 308 307 307 306 306 309 312 314 314 314 317 311 304 308 309 307 307 305 305 306 306 305 305 305 306 306 306 307 307 307 306 305 306 308 307 308 308 310 312 314 315 316 317 316 317 316 314 313 312 312 311 310 310
312 314 311 316 317 315 316 315 315 312 308 314 303 311 310 309 309 312 313 312 304 311 312 310 310 312 311 311 310 309 311 310 309 307 313 311 311 311 309 310 308 311 312 314 313 316 311 301 307 309 305 305 305 305 306 306 305 305 305 305 306 306 305 306 307 308 307 306 308 307 307 308 314 316 316 318 318 318 317 315 314 314 313 313 312 311 310 309
315 317 317 314 309 313 313 314 311 310 306 310 307 312 313 310 310 312 312 314 312 311 311 310 313 313 313 312 313 311 313 312 310 312 313 314 306 312 309 311 312 310 313 311 313 313 312 303 309 307 298 302 304 304 304 305 305 304 304 305 304 304 305 306 303 309 306 305 307 307 305 306 313 317 317 317 316 316 315 314 314 313 313 313 312 310 309 309
316 316 317 315 308 308 311 314 314 310 303 310 314 313 313 312 315 314 307 313 313 315 315 316 316 313 315 314 312 312 315 313 313 314 314 315 315 314 313 313 312 312 310 312 314 309 309 306 298 300 297 297 305 305 305 304 304 300 303 305 306 308 308 308 308 309 311 311 304 298 304 312 314 316 314 315 315 315 315 314 314 314 314 313 312 310 309 309
Wind_Speed
15 15 16 16 16 16 15 15 15 15 15 15 15 14 13 13 12 12 12 12 12 12 11 11 10 9 8 7 7 3 5 6 3 5 6 3 4 3 12 7 9 10 9 6 6 7 6 5 6 7 6 6 4 3 2 2 1 5 1 1 4 4 5 6 8 7 4 6 7 7 6 7 8 6 6 7 13 14 13 12 7 10 11 8 6 4 5 3
16 17 17 16 16 16 16 16 15 15 15 15 14 14 13 12 12 12 12 12 12 12 11 10 9 8 7 6 5 3 7 5 4 5 1 4 4 2 3 7 9 10 9 7 7 6 5 6 7 9 7 5 3 6 5 4 5 2 2 4 7 6 7 5 6 6 4 8 9 9 9 9 9 4 6 8 10 12 10 10 7 9 9 9 6 5 6 5
16 16 16 16 16 16 16 16 16 15 15 15 15 14 13 12 12 11 12 12 12 12 11 9 9 8 7 6 2 2 6 6 7 5 4 6 4 4 4 8 9 4 7 3 4 3 3 2 7 8 3 6 0 7 3 6 4 4 3 6 8 9 10 9 7 9 10 8 10 10 11 12 9 7 8 12 11 12 13 9 9 8 8 7 6 6 6 5
15 15 15 16 16 16 15 16 16 16 15 15 14 14 13 12 11 11 11 12 12 11 10 10 8 7 6 6 2 5 6 8 4 4 5 8 5 2 5 6 6 5 4 3 3 3 2 2 5 6 6 6 5 3 5 3 2 5 5 6 7 7 8 9 9 9 8 7 10 11 11 14 12 9 4 5 11 13 9 8 6 7 7 6 8 7 6 6
15 15 15 16 16 16 15 16 16 16 15 15 14 14 13 12 11 10 12 12 12 11 10 9 8 7 6 4 5 5 5 6 6 3 6 5 3 3 4 6 6 7 6 2 5 4 5 5 7 6 7 7 8 8 10 12 10 8 11 9 7 10 9 9 10 9 9 10 11 10 11 11 9 13 14 13 11 7 6 6 6 7 6 6 7 7 6 7
15 15 15 16 16 16 16 16 16 16 15 15 14 13 12 11 11 11 11 11 11 10 9 8 7 7 6 2 4 7 6 4 2 4 5 4 3 3 5 5 4 5 6 7 5 3 5 7 9 8 7 6 8 8 8 7 4 10 11 12 12 10 10 7 8 7 7 10 12 12 12 11 12 13 13 14 12 8 6 5 6 6 5 6 5 5 6 6
15 15 15 16 16 16 16 17 17 16 15 14 14 12 11 11 11 11 11 11 11 9 9 8 7 7 6 4 5 7 1 10 1 6 8 5 3 5 5 5 6 6 7 6 5 6 8 10 8 9 9 11 11 13 12 12 13 11 12 12 13 11 12 9 11 12 13 14 13 10 10 12 12 13 9 13 10 8 7 6 6 7 5 4 6 7 5 5
16 16 16 16 15 16 17 17 17 16 15 14 13 12 11 10 11 11 11 10 10 9 8 7 7 7 6 5 5 5 10 8 7 4 8 6 6 7 7 6 7 6 7 6 3 6 8 11 10 11 7 9 12 15 13 15 13 12 13 12 13 12 12 12 13 15 15 15 12 13 15 13 13 12 10 12 9 7 6 6 7 9 6 5 6 6 5 6
16 16 16 16 16 15 16 17 17 16 15 14 13 12 11 10 10 10 11 10 9 9 7 6 7 6 3 5 6 12 9 5 3 6 10 9 8 9 9 6 8 7 3 2 3 3 10 10 10 3 12 14 14 17 12 11 11 11 15 13 14 14 14 13 15 13 12 10 10 13 14 12 13 14 14 10 8 6 5 6 6 10 8 7 6 6 6 6
16 17 16 16 16 16 16 17 18 17 16 14 13 12 11 10 10 10 11 10 8 8 7 6 6 5 5 6 5 9 5 3 3 7 10 9 8 8 9 5 5 4 4 3 4 6 7 8 10 13 16 15 8 9 10 11 13 13 16 16 15 13 12 11 13 13 12 13 12 14 13 11 7 2 8 9 7 6 6 7 7 8 9 8 6 5 5 6
17 16 16 16 16 16 16 17 17 17 16 15 13 12 11 10 10 9 9 8 8 6 7 6 5 6 7 6 5 10 3 3 3 5 9 9 9 8 7 5 4 3 1 4 4 2 11 14 15 10 8 10 14 15 13 14 16 16 17 17 16 14 13 13 13 13 10 13 15 15 14 12 12 11 10 8 7 6 7 7 8 8 8 7 7 6 6 5
18 17 16 16 16 17 17 17 17 17 17 15 13 12 10 9 9 9 8 7 6 6 4 4 4 4 7 8 10 6 1 2 1 5 7 9 8 6 3 3 4 2 2 8 8 9 11 13 9 7 10 12 15 17 16 16 15 16 13 13 14 12 10 7 9 8 9 8 3 7 14 15 13 12 10 8 5 6 6 7 7 8 7 7 6 6 6 6
18 18 17 17 18 17 17 17 17 17 15 15 13 11 9 8 7 7 7 6 4 3 1 3 6 4 6 7 7 5 2 1 3 4 5 6 5 1 2 2 4 2 2 7 11 8 6 2 10 16 15 13 11 5 12 13 14 15 11 11 12 11 11 7 6 6 6 5 3 2 7 10 12 11 9 6 6 6 7 7 7 6 6 6 6 6 7 6
19 18 18 18 19 18 17 18 18 16 16 14 12 9 7 5 5 6 5 5 1 1 3 5 5 4 5 10 4 3 1 1 3 5 7 5 6 3 4 2 1 1 0 7 8 5 5 10 17 15 11 9 13 16 13 10 10 7 6 6 8 8 10 8 8 10 10 3 7 6 9 10 11 11 8 6 5 6 8 8 7 6 6 6 6 6 6 7
20 19 19 18 19 19 18 18 17 18 16 12 10 7 3 2 4 4 2 3 3 3 5 6 5 4 5 7 3 4 3 1 5 2 4 7 6 6 5 6 6 5 5 9 8 7 10 16 15 11 11 13 16 13 10 8 6 6 7 10 8 9 9 8 5 6 6 5 3 5 10 10 11 10 8 7 6 6 9 9 8 7 6 7 6 7 7 7
20 19 18 19 21 20 21 17 19 18 16 13 8 6 6 1 0 1 2 3 7 6 5 4 3 6 7 8 5 5 4 3 4 4 2 3 4 5 6 9 9 10 12 10 7 6 8 10 8 13 15 13 10 8 9 8 6 5 8 10 9 10 10 11 11 9 11 11 9 5 10 8 11 10 9 7 7 8 10 10 8 7 7 7 7 6 7 7
20 19 19 21 21 21 21 19 19 17 16 12 8 2 4 4 3 3 3 7 5 4 4 2 1 4 2 5 3 4 4 4 3 2 3 2 2 8 14 14 13 14 14 11 9 11 11 10 12 12 8 7 6 5 5 6 8 10 5 10 10 11 10 11 12 12 11 10 13 12 11 13 12 11 10 8 8 9 10 10 9 8 7 8 7 7 7 7
21 19 21 21 21 22 21 20 17 17 14 11 6 3 2 2 3 4 4 5 2 2 4 3 5 4 8 5 4 6 3 2 4 4 3 4 1 5 10 12 14 16 14 13 9 8 7 9 10 8 8 7 8 9 1 6 8 9 8 10 10 9 10 12 8 7 9 11 14 13 14 13 13 12 11 10 10 11 11 9 8 8 8 8 8 8 8 8
21 22 21 22 21 21 21 21 19 16 13 10 4 2 3 3 4 5 4 2 4 5 6 6 6 7 8 7 2 2 1 4 4 5 6 5 6 5 7 11 14 14 11 8 7 5 5 8 5 5 6 4 4 9 3 8 13 14 10 9 10 10 10 11 11 8 8 12 12 12 11 13 13 12 11 11 11 11 11 9 8 8 7 7 8 8 8 8
21 21 22 22 22 21 20 22 21 19 10 7 4 3 4 4 5 4 5 4 4 8 9 6 3 7 6 3 3 4 1 3 3 3 3 3 5 10 10 7 6 5 6 5 8 6 8 5 3 5 8 6 4 7 11 13 15 16 12 10 12 12 12 12 11 9 9 12 13 13 13 14 11 10 11 11 11 12 12 11 9 8 8 8 8 8 9 8
21 21 21 19 22 21 20 21 23 21 15 6 7 4 2 5 4 5 5 3 3 3 3 2 4 4 3 3 2 3 4 7 2 4 4 2 2 8 8 7 8 8 4 5 3 8 10 9 10 9 10 6 9 9 12 16 12 10 12 14 11 11 11 10 9 6 4 9 12 13 14 13 12 11 11 10 11 12 11 11 11 10 10 9 10 9 8 7
21 22 19 21 20 22 19 21 21 19 17 7 6 6 4 6 4 4 4 4 5 2 1 2 2 3 2 2 3 3 7 4 6 6 4 3 8 8 8 8 6 6 6 7 6 7 6 1 7 7 8 8 8 11 14 14 14 11 9 9 10 11 11 11 10 9 10 10 11 14 14 10 12 11 11 11 11 10 11 11 11 11 11 9 9 10 9 8
20 21 22 20 23 21 21 18 19 13 7 3 6 6 5 4 4 2 5 5 3 2 0 2 5 6 5 3 1 2 6 4 7 5 3 4 5 3 7 8 6 5 7 8 6 6 5 5 5 6 8 10 11 10 13 14 10 8 8 10 8 11 10 10 9 7 7 7 11 15 11 8 10 11 12 11 10 10 11 12 11 10 11 11 10 9 8 8
20 21 20 21 22 24 20 20 15 8 3 3 5 6 2 3 3 4 6 1 5 5 3 4 3 3 5 1 3 4 5 6 4 8 3 5 3 3 6 3 2 5 5 2 5 3 8 8 4 8 10 10 12 12 12 6 5 5 12 6 9 10 8 9 8 10 12 12 13 16 9 7 7 9 9 10 10 10 11 11 11 10 10 10 9 9 9 8
20 20 20 20 22 24 23 17 3 4 5 4 3 3 3 3 3 5 6 4 4 5 2 3 1 4 4 1 3 4 4 4 5 2 3 5 2 5 4 1 4 3 1 1 4 5 7 4 5 11 11 11 12 9 9 11 5 8 13 10 7 10 11 12 14 11 4 7 5 5 4 8 7 10 9 8 9 10 10 10 11 10 10 9 9 9 8 8
20 19 20 20 21 25 22 4 3 6 6 0 4 2 3 3 2 5 5 5 7 5 5 6 3 6 3 5 1 1 5 4 5 3 3 3 5 4 3 3 4 3 3 4 0 5 5 3 7 10 11 12 13 9 6 10 5 6 8 10 11 11 10 13 13 8 4 5 5 7 2 6 6 8 8 7 10 11 10 10 10 10 9 9 9 8 8 8
20 19 19 19 18 21 9 1 6 7 6 4 2 3 4 2 2 5 4 4 5 3 5 7 4 5 4 4 2 2 10 7 4 3 3 1 2 3 6 4 4 3 1 2 5 5 4 8 6 8 10 11 10 8 9 4 3 5 10 10 12 13 11 10 5 3 7 7 8 3 3 7 7 7 6 7 8 9 10 10 10 10 10 10 9 9 9 8
21 19 19 18 16 9 5 7 8 5 3 4 3 3 5 1 5 3 4 4 3 3 2 5 5 2 4 3 2 4 6 2 8 5 1 1 4 4 5 4 3 5 3 4 3 6 5 7 8 10 9 8 7 8 12 11 7 7 11 10 10 10 8 5 3 5 4 4 6 4 1 3 6 7 6 4 8 9 9 9 9 9 9 9 9 9 10 10
20 19 18 17 19 11 5 4 5 5 4 2 4 5 1 3 6 4 3 2 2 1 1 4 1 3 1 1 3 2 5 1 1 4 3 3 5 5 3 5 1 3 1 6 4 7 3 1 6 7 7 3 7 8 12 7 8 11 12 7 7 6 5 3 4 3 2 3 5 4 4 3 7 6 6 5 7 7 8 8 8 9 10 9 9 9 9 9
20 19 18 16 15 5 3 4 7 2 3 3 4 4 2 6 4 5 3 4 3 7 5 5 5 2 2 8 7 4 7 5 3 1 2 1 3 3 4 3 4 7 7 8 10 9 8 4 4 2 1 5 7 8 3 2 11 14 13 9 8 6 3 2 1 1 3 1 5 3 2 6 6 4 5 3 6 5 5 6 7 8 9 9 8 8 8 9
21 20 17 12 6 4 4 5 3 1 2 3 5 4 5 5 4 3 2 5 3 6 3 2 3 3 10 11 10 5 3 3 3 3 6 4 6 3 5 6 6 5 7 8 9 9 7 6 4 3 1 6 8 9 4 10 18 15 10 8 8 5 2 4 4 2 4 4 3 3 1 4 1 6 6 6 4 4 4 8 8 8 9 8 7 8 9 10
22 22 18 9 4 3 5 3 3 3 4 6 5 5 6 4 4 3 3 3 5 5 3 5 4 1 6 3 8 9 6 6 1 3 3 4 6 7 5 3 6 7 6 6 7 7 7 7 6 7 2 9 11 10 7 9 13 10 9 7 7 4 3 2 4 1 2 4 6 2 2 4 7 7 7 5 5 5 5 6 7 8 9 9 9 9 9 9
23 22 23 10 5 5 7 7 4 4 6 6 5 5 6 3 4 4 7 5 3 2 6 3 1 1 5 9 7 5 1 3 4 3 1 3 5 4 3 3 3 3 4 5 7 6 7 6 5 6 4 7 10 9 8 8 10 9 9 7 6 2 1 3 2 2 2 7 5 1 1 1 8 7 5 6 5 5 5 6 7 8 9 9 9 9 9 9
23 22 10 2 5 6 5 5 5 5 5 4 6 6 5 4 3 5 2 2 5 2 0 1 2 3 6 7 6 1 8 4 3 5 6 6 6 7 5 2 2 5 4 6 5 5 4 6 6 7 5 7 8 4 11 6 11 9 8 8 5 4 1 1 1 3 6 5 6 4 3 5 7 7 7 7 7 5 6 6 8 9 9 8 9 10 9 9
27 19 8 4 5 7 8 5 3 3 2 5 7 7 5 4 5 7 6 6 4 2 3 3 5 10 8 6 2 2 4 5 1 5 5 7 6 5 5 5 2 4 6 7 3 3 1 5 6 1 4 6 5 3 3 4 8 7 6 4 7 3 3 3 5 5 3 3 3 5 1 2 4 7 7 7 7 6 7 8 9 9 9 9 8 8 7 8
17 2 2 4 3 3 1 1 2 3 4 6 7 5 6 3 6 4 4 2 4 4 6 6 7 9 7 6 3 3 3 3 6 4 5 1 4 2 3 2 0 1 5 3 5 3 5 4 6 5 3 8 3 2 4 3 5 7 5 7 1 5 1 3 3 4 0 3 0 2 3 7 8 7 9 9 9 8 8 9 9 10 10 8 7 7 7 7
6 8 4 2 2 3 1 2 1 4 4 6 7 6 2 3 5 5 3 2 3 1 6 9 5 3 10 8 5 6 5 3 4 5 5 3 6 3 2 5 4 2 3 5 6 2 3 6 4 3 6 2 1 4 4 2 6 5 7 4 7 4 4 2 3 2 2 3 1 4 4 7 7 4 9 11 10 9 10 9 10 10 10 8 7 6 7 7
8 5 4 4 4 2 2 2 3 5 5 7 5 3 1 3 0 3 4 5 3 4 5 10 4 5 7 7 7 6 7 6 8 6 6 4 3 2 1 2 3 3 3 3 4 4 3 6 5 2 5 6 5 7 6 3 4 4 4 11 6 3 7 4 2 3 3 2 0 4 3 3 6 6 10 13 12 12 11 10 10 10 9 8 8 8 8 7
6 4 4 4 4 1 2 1 4 5 6 8 6 4 3 4 4 3 2 0 1 1 6 2 1 1 2 7 4 3 5 6 7 6 8 4 4 1 2 3 4 3 0 3 3 4 2 2 6 4 2 6 6 7 4 6 6 2 3 5 2 5 4 3 1 5 5 3 2 4 4 2 6 5 14 15 13 13 12 11 10 10 9 8 8 8 7 7
5 4 4 4 3 1 2 2 4 5 7 6 8 4 4 7 6 3 2 3 2 3 3 4 1 4 3 3 4 5 3 3 9 5 5 4 1 1 2 0 2 4 1 2 0 3 3 2 2 7 4 6 7 7 3 6 7 6 6 5 5 4 3 4 1 5 4 3 3 2 1 4 6 6 12 14 14 13 13 11 10 9 9 9 8 7 8 8
1 4 2 3 3 1 3 4 6 7 8 3 3 5 7 6 8 3 3 1 1 2 2 2 3 4 4 6 6 2 5 5 6 6 5 6 5 4 3 2 1 4 3 4 5 3 1 7 2 7 7 8 4 5 5 7 3 3 5 5 5 6 6 6 3 4 5 5 2 2 2 6 5 2 7 13 12 12 12 12 11 11 11 10 9 9 8 9
4 7 3 3 2 2 4 5 2 2 2 8 6 5 6 3 7 7 5 4 3 2 1 1 2 1 4 1 2 4 5 7 7 5 4 5 3 3 5 1 3 1 4 2 1 3 4 2 4 4 2 2 5 4 2 3 2 4 5 2 3 4 5 5 5 2 3 2 3 3 5 4 4 4 5 11 11 12 12 12 12 11 12 11 10 9 9 9
6 3 4 1 3 3 5 3 1 4 5 3 4 5 5 5 5 6 6 4 4 1 2 2 2 3 3 0 3 4 4 4 4 6 6 4 6 5 4 1 2 4 4 3 3 3 3 5 5 3 5 6 5 4 4 2 1 5 5 3 3 5 4 5 5 2 4 2 4 2 4 4 5 5 6 10 11 11 11 12 13 12 11 11 11 10 10 10
2 3 3 3 1 3 4 3 5 5 4 4 3 6 1 2 6 9 5 6 3 5 3 4 4 2 3 1 2 4 3 4 1 4 6 3 4 3 2 1 4 3 2 3 3 5 3 2 5 4 4 5 5 5 5 3 4 4 2 3 3 2 2 1 3 2 4 5 7 4 5 3 7 6 8 11 12 13 13 12 13 13 11 11 11 9 9 10
2 1 3 1 2 4 6 2 4 6 7 9 8 9 8 3 1 3 2 7 3 2 4 4 1 4 3 2 1 1 2 3 5 1 2 5 4 3 3 2 4 1 2 4 4 2 2 1 5 5 5 4 5 6 5 8 7 3 1 3 4 6 5 5 4 3 5 3 4 4 0 6 8 8 11 13 12 13 12 12 12 11 12 12 10 9 10 9
5 3 5 5 2 3 1 1 4 4 7 9 7 8 8 8 4 3 1 6 1 3 2 3 4 4 4 5 5 5 6 1 1 5 6 6 6 3 3 2 1 2 7 7 2 0 0 1 4 5 7 5 4 5 5 3 6 7 7 5 5 4 2 5 5 4 3 3 4 5 2 10 11 13 14 15 14 14 14 13 12 12 12 11 11 9 9 9
2 4 4 5 3 4 4 4 4 4 6 8 5 7 10 9 8 6 1 3 6 3 4 2 5 7 5 6 6 5 3 6 1 6 7 7 5 5 3 2 7 7 5 3 2 1 2 4 2 3 2 2 3 4 4 3 5 4 7 6 5 5 5 6 3 3 5 4 6 5 9 10 11 15 15 16 15 14 13 13 13 11 11 11 10 10 10 9
4 2 2 4 2 4 5 5 5 5 2 4 2 3 10 11 11 7 4 1 5 5 5 4 5 7 6 7 6 4 6 6 6 6 6 5 8 8 7 5 3 5 6 2 1 3 4 3 4 2 2 2 3 2 1 1 1 3 4 7 7 6 5 6 4 2 4 4 4 4 5 6 10 16 17 16 16 15 14 14 12 12 12 12 12 11 11 10
3 2 1 2 3 1 1 4 3 3 5 4 3 4 10 12 11 9 7 7 6 7 8 3 9 10 9 6 5 5 7 5 4 6 7 8 8 9 6 6 3 6 5 4 2 2 3 1 3 2 3 2 2 1 2 3 4 5 5 5 4 5 5 4 3 2 5 4 3 2 3 5 6 13 15 15 13 13 13 12 12 13 13 13 12 11 11 10
2 2 4 3 3 2 2 3 4 5 7 3 3 6 7 12 11 8 6 9 5 7 6 6 8 10 9 8 6 6 7 6 5 9 8 9 6 7 6 4 5 5 5 3 3 2 4 1 5 5 5 3 2 2 3 4 6 6 4 4 5 4 2 2 1 1 1 4 3 2 5 5 2 9 12 13 13 12 12 13 13 13 13 12 12 11 10 9
2 3 3 3 6 3 2 4 6 7 5 5 6 6 4 11 10 9 7 4 6 7 8 9 5 6 3 7 7 7 1 3 1 2 7 10 5 6 3 5 4 7 5 4 3 3 5 2 4 4 4 4 3 2 5 5 6 5 6 6 7 6 5 4 2 2 5 2 3 3 5 6 6 10 12 14 15 15 15 14 13 11 12 12 11 10 10 9
2 1 3 3 3 2 4 3 3 3 4 5 1 8 5 10 4 8 4 2 1 0 3 5 2 5 6 5 9 5 2 2 3 3 2 4 2 4 2 1 5 5 5 4 1 4 4 5 3 4 5 3 5 1 3 6 5 6 9 9 6 2 1 2 1 3 3 1 3 3 2 4 12 12 14 15 15 15 14 13 12 12 11 11 11 11 10 10
Wind_Direction
336 332 333 333 332 332 332 330 328 329 329 330 326 321 322 320 319 317 317 315 312 311 315 317 323 324 326 319 319 72 296 256 209 210 229 53 21 39 164 50 99 113 156 181 160 181 174 170 158 169 176 197 121 137 88 103 335 245 309 304 73 36 56 28 40 41 61 93 81 64 54 81 76 79 81 74 74 70 65 75 75 68 63 66 65 65 70 62
337 337 333 330 329 329 329 327 325 324 327 325 320 320 319 318 317 314 313 310 309 309 310 316 321 320 319 317 307 31 276 242 208 205 333 36 11 139 90 80 117 150 197 190 186 193 166 152 151 186 180 127 199 92 232 92 287 341 80 25 61 39 61 13 31 46 77 85 86 75 65 72 62 37 70 78 68 70 72 69 63 75 84 82 69 49 54 58
339 334 331 328 328 327 325 322 322 321 323 323 320 317 318 315 314 312 307 305 304 307 307 311 321 319 307 305 326 236 269 218 214 106 69 44 82 73 106 153 148 153 221 223 204 254 299 53 162 198 172 123 264 117 231 91 261 25 335 84 73 71 60 38 49 67 83 112 100 86 72 66 57 61 88 80 77 71 51 44 41 48 44 52 60 60 53 58
335 332 330 329 325 325 324 321 319 320 319 315 314 315 317 314 311 308 302 301 302 304 306 314 316 312 314 293 134 269 249 232 116 69 74 63 75 94 153 146 136 192 217 257 217 251 263 204 180 216 146 114 109 108 105 87 269 35 59 55 80 70 82 54 68 74 84 81 85 83 79 69 56 57 66 106 90 66 56 44 44 40 40 43 55 60 70 72
333 330 328 325 326 323 322 320 318 317 315 313 312 313 318 311 307 303 298 298 301 301 307 313 311 305 306 299 269 228 256 227 77 52 73 95 122 153 148 146 179 198 231 195 204 230 229 193 173 176 129 115 110 91 78 79 72 80 63 65 77 98 85 73 70 69 79 76 82 77 77 77 76 55 53 65 72 58 57 51 36 45 37 43 63 77 80 72
331 329 328 325 322 321 321 320 318 316 313 311 311 309 309 305 301 298 297 298 297 300 306 308 309 306 295 172 236 223 255 107 95 86 111 146 130 141 151 152 208 250 205 191 219 216 205 179 174 147 130 130 102 98 95 95 140 91 77 68 63 65 85 75 77 69 80 85 81 81 81 85 75 70 57 62 65 74 73 61 61 58 51 60 62 67 75 82
330 329 328 326 321 320 320 321 319 316 313 309 307 306 300 301 302 297 295 295 293 298 306 307 307 301 310 275 216 241 188 88 272 102 118 159 161 138 138 160 197 210 207 231 211 203 205 168 178 112 109 103 99 90 82 81 69 79 86 80 76 79 82 83 85 86 84 86 86 86 92 85 83 72 62 68 69 75 75 71 79 81 76 61 68 58 58 66
329 329 328 323 322 318 317 321 318 312 309 307 302 299 301 299 295 295 291 288 292 298 300 306 306 296 316 231 233 151 100 77 78 134 150 139 172 162 187 182 203 209 230 258 229 207 179 169 140 144 122 111 106 100 98 94 94 95 94 89 90 87 91 95 97 91 91 93 98 94 89 82 77 80 77 66 62 62 74 87 93 87 75 65 59 64 67 63
328 327 326 324 320 317 315 318 318 313 307 305 302 300 298 297 292 291 288 286 292 297 301 299 291 304 249 272 247 114 82 38 30 141 156 171 179 171 192 188 193 228 248 225 248 172 181 137 129 120 112 113 114 108 113 99 87 90 97 100 98 94 94 98 98 96 95 89 82 94 90 92 94 82 62 61 63 61 75 81 84 109 110 89 66 53 41 49
326 327 327 324 320 318 318 321 317 313 308 303 304 303 298 290 290 284 284 288 293 296 297 295 286 289 251 254 240 117 76 16 166 164 178 184 177 186 206 248 189 224 228 132 163 182 166 142 126 121 113 96 95 80 86 97 104 111 105 99 98 101 104 101 99 99 104 104 110 93 91 90 89 97 82 69 63 72 71 70 74 79 81 78 75 66 61 59
324 323 325 324 321 320 321 320 316 313 311 309 309 303 293 288 277 276 280 286 291 297 292 280 305 265 279 275 175 101 72 243 132 173 185 187 187 202 210 214 226 230 152 150 126 148 122 130 122 117 105 103 102 92 98 100 114 105 106 103 96 93 93 100 103 110 111 98 96 88 86 83 75 67 64 61 63 64 66 68 76 75 85 83 80 77 77 68
322 323 325 325 323 321 322 319 317 316 316 316 313 303 295 282 274 272 275 282 284 288 286 275 271 274 278 277 88 77 140 281 177 176 191 193 203 231 314 227 230 235 287 118 111 103 127 114 157 112 110 117 95 107 105 119 109 104 102 106 108 106 93 85 99 101 107 108 71 59 84 66 57 58 65 65 61 76 75 80 74 76 78 81 79 81 75 71
323 323 325 326 327 324 322 322 321 318 317 321 316 305 293 284 278 273 266 261 237 244 273 256 257 257 291 114 59 87 304 334 197 179 196 212 230 220 263 222 231 283 346 106 113 106 104 187 112 120 124 126 138 97 126 131 125 123 131 115 109 92 83 84 111 121 135 89 114 222 66 61 61 63 66 63 59 85 84 75 75 80 88 87 83 78 77 70
324 324 327 329 332 328 323 325 327 325 328 325 327 315 299 285 269 262 258 264 84 199 214 251 268 266 277 84 100 40 26 232 124 189 215 206 234 192 178 173 183 218 360 92 94 104 131 123 114 111 126 129 106 126 141 128 174 121 155 93 67 82 76 69 73 94 100 118 168 181 91 78 76 66 60 75 72 69 84 77 75 77 88 91 92 89 90 85
325 326 330 331 335 333 329 328 329 333 335 330 338 347 332 290 273 275 269 229 224 170 226 256 242 262 143 87 120 81 75 242 205 202 193 201 224 161 139 139 131 122 110 111 115 125 119 121 121 117 103 114 132 144 133 147 148 146 126 87 89 84 87 77 43 69 92 106 58 108 74 77 72 70 71 71 72 78 78 83 78 75 73 87 89 88 80 84
328 327 329 338 338 336 332 331 335 335 337 338 340 5 28 100 300 257 238 19 113 162 207 238 197 284 146 121 91 131 207 215 90 25 104 233 300 74 125 118 117 120 125 109 121 127 123 122 100 104 119 144 152 137 136 143 144 105 95 99 98 97 97 94 75 82 69 84 77 54 97 103 80 77 75 69 74 82 84 81 84 86 90 86 86 85 89 91
330 330 334 339 339 337 333 329 336 337 336 337 318 73 36 45 140 169 137 153 161 209 260 325 360 272 185 68 165 205 99 58 338 148 113 138 351 116 124 131 128 123 120 126 123 125 118 108 119 125 148 168 137 181 158 121 124 106 114 97 95 96 103 89 87 66 75 82 82 72 78 76 84 81 82 82 79 81 82 84 85 84 82 90 91 93 91 87
333 332 337 339 339 339 333 328 329 338 333 328 320 22 77 85 146 174 186 214 171 213 246 271 293 237 92 199 186 88 331 337 6 10 60 86 149 146 139 129 134 129 129 125 136 124 138 124 187 124 162 172 171 94 191 122 98 95 97 109 109 104 90 102 97 88 101 90 88 89 85 84 80 79 75 80 78 79 80 79 78 83 83 82 88 86 84 84
333 334 336 339 338 339 336 328 326 335 330 315 291 108 85 221 230 258 266 170 216 176 193 147 199 207 121 119 57 270 289 1 302 268 117 129 100 122 128 135 143 148 138 156 113 151 157 130 211 131 150 176 224 111 195 106 102 107 111 114 117 107 101 96 101 110 95 92 83 80 82 78 72 75 81 75 71 72 79 81 78 77 83 88 84 84 84 86
334 334 335 336 338 338 337 330 326 326 339 288 206 200 208 203 187 165 194 217 18 16 12 63 24 79 116 121 117 42 342 235 231 108 115 115 162 140 130 151 150 185 162 132 143 132 99 107 109 203 118 133 203 103 140 111 107 111 129 112 89 97 101 104 102 99 86 87 84 88 85 90 88 69 63 67 72 75 74 76 78 76 72 76 80 83 87 84
334 332 331 330 335 337 336 331 326 320 322 278 262 243 47 10 283 108 354 43 34 9 335 43 342 325 23 7 2 307 192 142 303 101 85 107 206 170 132 181 180 113 69 96 133 138 186 176 164 188 121 138 105 113 110 102 101 113 127 119 121 128 108 111 115 118 114 99 93 90 88 81 77 83 78 74 66 61 60 67 71 78 81 76 77 75 72 82
334 333 329 332 331 333 335 329 322 317 304 276 32 66 72 37 359 351 303 154 104 44 290 334 300 235 172 279 9 331 288 159 131 100 113 239 165 220 124 226 213 101 141 152 144 176 206 149 83 93 117 124 131 124 120 113 126 146 131 117 109 100 107 110 118 127 114 101 103 88 73 64 81 77 76 69 67 65 63 59 60 60 60 66 68 73 78 74
335 332 333 328 333 329 333 325 318 314 312 13 54 58 46 353 326 278 248 295 106 56 265 151 168 135 118 80 83 260 220 157 125 113 88 297 162 62 148 204 166 125 166 188 188 156 178 110 101 127 137 143 146 132 132 128 127 127 152 124 131 129 139 130 113 121 130 100 102 93 88 79 84 83 77 74 75 75 70 69 66 59 60 54 51 51 57 62
335 333 330 330 327 330 325 325 298 284 353 347 61 62 34 332 303 205 222 253 110 108 21 56 7 93 108 146 101 271 247 109 248 111 56 286 161 121 211 357 182 213 154 203 281 8 69 72 112 159 152 154 149 141 131 103 124 130 95 107 128 152 120 123 130 122 108 114 114 97 95 99 86 88 89 80 71 68 67 71 73 76 77 73 65 62 52 52
334 333 332 329 330 325 324 317 291 11 328 241 120 96 357 319 268 217 250 150 187 108 205 164 258 78 77 234 177 254 99 123 29 35 12 314 110 213 71 77 265 179 302 91 193 180 100 62 165 164 163 159 144 143 156 119 174 123 121 155 125 131 128 119 134 132 136 135 166 106 72 79 82 71 76 86 83 71 64 71 72 67 68 68 69 69 76 72
331 332 332 332 331 327 311 281 90 343 302 235 72 75 330 316 212 211 246 191 122 85 200 143 277 131 278 142 221 166 224 140 16 47 340 5 303 353 189 168 326 80 111 179 14 45 66 128 194 168 171 159 155 153 169 176 126 150 112 137 133 120 137 156 158 187 141 84 103 184 60 104 95 80 74 78 81 78 75 67 67 69 65 65 62 62 59 62
330 330 331 332 332 335 316 133 3 303 251 134 111 338 321 309 191 164 232 146 140 27 334 61 248 83 297 53 342 161 201 116 111 118 195 223 298 57 271 117 172 101 51 32 200 117 122 154 182 189 173 172 166 154 177 140 104 103 139 143 140 137 157 159 171 57 104 101 112 109 88 97 112 92 91 83 81 83 78 72 68 68 66 63 68 65 62 65
327 329 330 328 326 328 297 315 303 300 5 60 351 322 317 152 174 203 254 156 93 238 131 141 14 357 304 17 316 281 35 55 184 97 2 49 273 164 278 48 341 91 127 249 149 82 150 158 172 173 182 182 193 145 163 152 130 139 147 148 147 152 140 164 156 104 110 206 97 112 306 110 83 111 120 132 93 78 69 68 72 72 74 73 67 72 77 70
326 327 329 327 314 298 251 255 297 279 63 355 339 323 314 156 205 260 227 116 62 273 51 142 35 232 264 187 196 209 206 340 175 75 121 123 47 332 230 88 117 105 91 304 99 124 91 163 167 174 191 175 76 143 160 180 115 130 131 157 152 133 157 191 120 144 134 280 68 51 319 53 98 117 130 99 81 78 77 73 71 73 69 69 73 77 79 85
324 326 327 327 308 185 202 216 237 285 340 344 320 321 177 185 232 200 188 113 255 149 230 28 255 111 205 196 164 189 175 107 40 56 64 336 89 164 66 315 161 147 127 93 77 69 91 60 18 295 11 60 118 106 139 198 118 145 141 156 150 163 146 211 354 324 246 112 84 49 341 317 96 77 62 72 56 58 93 91 83 82 82 79 79 77 78 78
323 323 323 323 292 344 312 247 122 74 331 314 308 254 213 222 242 199 162 76 234 97 177 204 142 205 193 187 161 131 121 122 147 217 159 183 164 160 142 147 234 160 125 116 104 120 121 141 176 53 213 127 126 132 113 129 137 153 155 157 164 160 176 213 208 240 268 74 78 102 4 282 218 121 106 88 106 86 67 84 82 83 82 80 74 77 76 78
322 318 317 304 271 318 247 2 30 332 320 320 297 219 219 200 209 210 133 121 205 129 200 121 135 210 169 97 148 164 166 147 110 220 201 181 160 187 172 191 165 159 156 163 130 143 91 70 89 115 163 154 141 130 132 149 156 172 156 165 184 163 204 227 208 212 10 47 106 114 146 200 65 74 103 120 105 99 64 66 85 90 89 87 83 79 79 81
321 316 312 266 218 219 241 289 322 321 317 292 261 213 212 200 187 131 144 186 131 335 127 272 55 218 157 175 131 135 25 197 108 132 238 153 203 94 41 339 13 284 177 159 148 158 89 118 147 116 168 182 158 143 148 169 180 187 174 177 212 159 180 317 37 46 247 125 106 113 159 3 106 110 115 117 105 103 102 94 88 92 93 91 91 88 85 81
317 316 314 161 219 246 292 303 288 309 299 256 227 189 233 212 151 2 148 168 98 153 325 245 177 168 190 182 119 245 168 83 236 135 227 164 188 157 157 121 291 196 178 164 201 165 156 160 135 179 156 171 232 208 169 174 188 197 159 196 280 317 91 273 347 17 23 52 123 110 256 121 189 103 126 110 120 135 126 114 107 107 105 100 94 91 87 85
313 297 258 247 237 240 241 266 273 264 265 236 200 201 183 180 142 163 166 147 146 172 173 174 202 168 132 141 97 132 332 147 123 187 177 191 149 172 152 140 108 285 157 198 83 248 66 69 87 8 20 183 199 356 291 175 192 177 230 225 220 252 35 324 25 347 37 101 168 169 349 43 72 127 125 135 140 144 148 130 132 123 114 110 105 99 95 89
306 322 195 256 254 91 188 189 206 217 261 216 203 191 201 169 169 193 124 36 118 206 149 180 190 177 159 145 138 172 120 274 143 225 119 83 72 116 59 55 106 335 228 226 145 168 196 139 98 93 158 199 236 201 193 266 216 157 197 212 36 46 135 101 149 46 220 246 75 142 180 115 123 153 147 155 152 151 158 145 136 128 122 118 109 106 98 90
314 316 232 203 169 62 91 171 214 258 252 235 202 192 129 116 13 133 112 196 69 341 197 183 145 230 179 170 166 165 143 213 163 223 136 159 138 66 124 98 4 248 312 330 159 343 269 116 121 200 145 120 183 236 182 170 322 138 214 159 95 43 354 294 314 135 254 311 78 208 198 157 187 152 160 168 158 165 161 152 136 133 136 131 120 113 104 92
314 304 286 274 24 46 106 105 288 257 237 216 209 59 188 143 132 69 107 132 174 219 232 192 123 298 176 181 176 174 156 234 146 220 136 214 79 346 135 124 79 354 330 311 282 153 256 159 146 76 83 117 160 171 155 162 311 305 352 130 201 185 215 179 261 254 285 285 161 190 220 197 207 136 170 175 169 166 163 151 149 147 136 124 120 113 108 105
272 282 210 90 24 23 127 195 274 249 208 210 163 158 144 62 128 140 139 60 337 260 201 86 183 104 247 193 144 198 190 208 155 191 176 152 179 59 35 347 112 75 149 276 247 125 233 243 131 154 176 148 187 208 189 160 166 138 133 188 238 274 301 210 205 314 284 298 285 135 185 224 203 152 176 170 167 166 157 161 156 144 136 132 127 123 118 108
289 250 186 67 43 127 154 234 264 228 212 199 186 140 135 136 148 135 158 263 122 266 119 158 174 145 190 95 216 183 161 231 186 148 245 118 68 115 75 200 21 101 343 259 7 194 189 324 207 141 141 178 192 204 253 168 171 172 203 198 183 236 35 309 187 262 294 310 314 318 235 138 95 112 162 163 161 164 162 157 146 139 129 121 116 114 108 104
252 271 118 45 36 212 244 243 219 197 200 76 30 117 167 137 149 145 141 230 123 351 355 152 170 187 138 162 174 184 169 185 186 178 207 152 222 166 70 27 354 103 148 160 158 172 217 204 205 141 177 219 73 34 345 337 339 234 210 209 209 190 195 221 205 167 237 265 306 289 326 108 106 140 154 155 156 161 160 147 145 138 130 124 121 116 115 109
250 219 131 59 26 244 265 210 195 325 240 179 161 158 145 324 150 142 163 162 296 119 160 53 56 58 145 170 78 166 190 187 185 182 192 200 145 348 103 56 311 314 273 131 112 76 320 253 231 197 183 93 57 48 15 309 274 326 299 263 226 218 256 255 290 124 228 224 293 294 297 101 100 134 148 148 157 158 150 148 140 135 130 128 126 120 112 111
216 257 74 325 9 260 244 224 95 204 203 81 101 98 123 160 145 149 167 175 168 170 154 217 133 175 119 9 173 176 200 151 194 205 157 190 120 47 75 340 269 220 251 103 146 132 255 224 181 135 121 122 122 100 94 63 291 222 207 271 232 239 245 302 315 358 280 150 241 206 248 108 135 147 149 149 153 146 145 146 138 136 133 131 131 128 123 116
299 291 150 133 157 249 254 205 187 195 133 134 184 123 24 118 157 159 179 171 193 170 193 157 152 316 97 176 216 186 193 178 225 176 163 176 134 60 46 281 218 187 270 100 296 134 234 147 261 173 190 162 165 174 182 149 231 247 245 165 266 291 257 315 302 266 273 237 278 305 286 114 136 163 155 152 151 148 148 144 139 136 138 137 134 129 123 120
276 227 268 115 150 219 248 318 228 183 158 162 153 155 156 155 49 8 158 163 183 171 172 170 83 144 155 171 203 165 154 330 154 192 16 168 100 128 65 258 233 240 70 37 23 126 262 138 223 221 213 210 202 214 206 185 201 155 170 156 192 228 196 207 228 188 265 136 251 263 200 115 127 160 161 158 159 150 145 143 141 144 143 141 137 134 129 123
197 207 174 183 165 185 274 87 298 226 168 166 169 158 175 148 150 142 272 135 254 143 329 115 147 196 165 185 187 188 168 190 242 165 191 159 137 118 52 118 153 110 83 73 34 180 96 155 262 296 298 306 352 42 37 332 149 210 161 188 171 200 215 250 301 271 283 95 256 232 301 145 156 172 172 168 174 161 150 152 149 147 143 136 136 137 131 124
360 252 166 188 157 233 213 188 203 229 188 181 176 164 178 170 150 150 269 183 177 185 160 231 171 183 178 205 199 170 168 159 157 179 183 165 106 100 101 85 109 99 143 118 10 235 196 231 150 303 2 37 348 31 58 356 220 187 167 169 162 180 199 236 253 335 42 297 270 127 133 166 171 174 176 174 174 168 158 156 150 146 145 144 138 130 128 128
221 159 312 10 283 173 192 194 208 200 10 233 152 179 184 160 167 159 163 281 136 198 200 177 232 220 191 195 195 187 172 169 166 177 160 167 145 146 141 166 170 138 221 136 212 264 262 269 101 258 60 41 31 62 63 158 16 163 172 162 174 173 196 228 263 301 264 261 313 83 181 208 174 181 179 176 174 171 162 159 153 149 146 140 140 143 140 135
311 34 345 38 236 35 28 53 150 216 179 223 148 208 187 182 179 165 167 157 180 184 214 194 202 206 205 192 219 186 178 160 188 175 186 181 177 170 156 138 139 165 199 138 116 2 264 264 131 213 135 86 89 116 177 192 158 164 158 171 168 186 208 258 255 251 247 271 357 301 221 244 174 180 177 171 169 166 156 148 145 151 151 148 149 149 142 138
173 237 150 172 310 119 114 169 170 191 189 177 198 191 201 191 179 146 160 166 173 181 186 226 204 200 196 202 210 213 192 218 184 191 190 188 159 210 181 211 134 174 193 162 153 120 264 133 158 180 202 131 99 157 179 184 182 166 154 170 178 179 157 147 139 160 249 248 243 265 233 202 124 166 165 161 161 159 148 153 157 153 152 153 152 146 140 131
13 353 341 254 192 135 168 190 183 202 187 179 219 152 222 192 182 175 158 199 193 182 186 205 205 182 180 205 206 227 317 278 288 250 191 192 206 188 237 162 172 159 170 159 196 154 243 111 189 202 233 164 137 185 173 188 217 204 172 181 181 185 196 166 204 150 233 237 172 212 215 201 151 162 158 159 167 165 159 157 156 155 157 155 153 143 136 127
248 172 247 291 227 100 223 145 196 191 204 171 255 158 203 180 154 174 144 205 181 329 191 211 167 226 176 201 216 209 47 17 5 15 296 162 17 108 46 140 205 180 175 151 130 204 193 157 189 200 232 169 123 171 170 195 210 223 213 193 183 159 47 103 133 183 244 197 194 223 297 85 153 162 164 168 172 169 161 160 155 157 158 158 149 145 138 127